Fri, 18 Jun 2021 21:48:38 UTC

Information for RPM lzo-2.08-9.fc26.i686.rpm

ID9060663
Namelzo
Version2.08
Release9.fc26
Epoch
Archi686
SummaryData compression library with very fast (de)compression
DescriptionLZO is a portable lossless data compression library written in ANSI C. It offers pretty fast compression and very fast decompression. Decompression requires no memory. In addition there are slower compression levels achieving a quite competitive compression ratio while still decompressing at this very high speed.
Build Time2017-02-11 05:16:49 GMT
Size74,942
4d032e8a82b45fd66eca04ace5fe58d2
LicenseGPLv2+
Buildrootf26-build-7622223-694373
Provides
liblzo2.so.2
lzo = 2.08-9.fc26
lzo(x86-32) = 2.08-9.fc26
Obsoletes No Obsoletes
Conflicts No Conflicts
Requires
/sbin/ldconfig
/sbin/ldconfig
libc.so.6
libc.so.6(GLIBC_2.0)
libc.so.6(GLIBC_2.1.3)
libc.so.6(GLIBC_2.4)
rpmlib(CompressedFileNames) <= 3.0.4-1
rpmlib(FileDigests) <= 4.6.0-1
rpmlib(PayloadFilesHavePrefix) <= 4.0-1
rpmlib(PayloadIsXz) <= 5.2-1
rtld(GNU_HASH)
Recommends No Recommends
Suggests No Suggests
Supplements No Supplements
Enhances No Enhances
Files
1 through 8 of 8
Name ascending sort Size
/usr/lib/liblzo2.so.216
/usr/lib/liblzo2.so.2.0.0142,372
/usr/share/doc/lzo4,096
/usr/share/doc/lzo/AUTHORS112
/usr/share/doc/lzo/NEWS12,279
/usr/share/doc/lzo/THANKS690
/usr/share/licenses/lzo4,096
/usr/share/licenses/lzo/COPYING18,092
Component of
Page:
1 through 50 of 231041 >>>
Buildroot ascending sort Created State
f26-build-7691002-695563 2017-02-14 23:12:25 expired
f26-build-7691009-695566 2017-02-14 23:19:20 expired
f26-build-7691015-695566 2017-02-14 23:19:26 expired
f26-build-7691020-695566 2017-02-14 23:19:38 expired
f26-build-7691025-695566 2017-02-14 23:20:20 expired
f26-build-7691036-695568 2017-02-14 23:27:03 expired
f26-build-7691042-695571 2017-02-14 23:30:08 expired
f26-build-7691046-695571 2017-02-14 23:30:24 expired
f26-build-7691052-695578 2017-02-14 23:30:51 expired
f26-build-7691057-695584 2017-02-14 23:38:57 expired
f26-build-7691064-695584 2017-02-14 23:39:53 expired
f26-build-7691069-695584 2017-02-14 23:40:33 expired
f26-build-7691075-695584 2017-02-14 23:40:50 expired
f26-build-7691081-695584 2017-02-14 23:42:35 expired
f26-build-7691085-695584 2017-02-14 23:42:56 expired
f26-build-7691086-695584 2017-02-14 23:42:56 expired
f26-build-7691087-695584 2017-02-14 23:42:56 expired
f26-build-7691108-695586 2017-02-14 23:46:21 expired
f26-build-7691113-695586 2017-02-14 23:49:29 expired
f26-build-7691124-695590 2017-02-14 23:54:25 expired
f26-build-7691129-695590 2017-02-14 23:54:43 expired
f26-build-7691130-695590 2017-02-14 23:54:45 expired
f26-build-7691140-695592 2017-02-14 23:58:54 expired
f26-build-7691145-695592 2017-02-14 23:58:55 expired
f26-build-7691155-695592 2017-02-15 00:00:06 expired
f26-build-7691158-695592 2017-02-15 00:00:15 expired
f26-build-7691159-695592 2017-02-15 00:00:54 expired
f26-build-7691165-695594 2017-02-15 00:03:02 expired
f26-build-7691171-695592 2017-02-15 00:03:28 expired
f26-build-7691174-695592 2017-02-15 00:03:44 expired
f26-build-7691181-695594 2017-02-15 00:05:22 expired
f26-build-7691188-695602 2017-02-15 00:06:10 expired
f26-build-7691193-695602 2017-02-15 00:07:13 expired
f26-build-7691199-695602 2017-02-15 00:09:37 expired
f26-build-7691200-695602 2017-02-15 00:09:37 expired
f26-build-7691207-695604 2017-02-15 00:11:35 expired
f26-build-7691211-695604 2017-02-15 00:11:44 expired
f26-build-7691213-695604 2017-02-15 00:12:48 expired
f26-build-7691219-695604 2017-02-15 00:13:10 expired
f26-build-7691228-695604 2017-02-15 00:13:33 expired
f26-build-7691230-695604 2017-02-15 00:13:34 expired
f26-build-7691232-695604 2017-02-15 00:13:52 expired
f26-build-7691236-695604 2017-02-15 00:13:52 expired
f26-build-7691246-695604 2017-02-15 00:14:12 expired
f26-build-7691253-695604 2017-02-15 00:14:32 expired
f26-build-7691257-695604 2017-02-15 00:14:39 expired
f26-build-7691261-695607 2017-02-15 00:15:18 expired
f26-build-7691264-695607 2017-02-15 00:15:39 expired
f26-build-7691268-695604 2017-02-15 00:15:59 expired
f26-build-7691271-695607 2017-02-15 00:15:59 expired